CZ-4 DEB

Satellite information

Favourite Embed

Satellite Type and Status

DEBRISIN ORBIT

Key statistics

Satellite CZ-4 DEB at a glance.

Uptime

9340

Days in orbit

Revolutions

≈ 14.6

Per day

Orbit

SSO

Sun Synchronous Orbit

Inclination

98.5

Latest

Satellite identification and parameters

Extended collection of information and parameters for CZ-4 DEB.

Object identification

Identified? True

Debris? True

Object name: CZ-4 DEB

International designator: 1999-057SF

Object number (NORAD): 35327

Object ID (CCSDS): 35327

Country: PEOPLES REPUBLIC OF CHINA (PRC)

Current information (Y/N): Y

RCS size: SMALL

Orbital parameters

Period: 98.662 minutes

Inclination: 98.487 deg

SMA: 7072.819 km

Apoapsis: 749.261 km

Periapsis: 640.106 km

RAAN: 170.0433 deg

Eccentricy: 0.0077165

Argument of periapsis: 32.5445 deg

Mean anomaly: 328.0477 deg

Mean motion: 14.59533212 rev/day

Mean motion (dot): 0.00009475 rev/day2

B* drag term: 0.0019219 1/REarth

Two-line elements (TLE)

Creation date: April 6, 2025, 2:24 a.m.

Reference frame: TEME

Reference center: EARTH

Epoch: April 5, 2025, 11:25 a.m. UTC

TLE line 0: 0 CZ-4 DEB

TLE line 1: 1 35327U 99057SF 25095.47598017 .00009475 00000-0 19219-2 0 9991

TLE line 2: 2 35327 98.4870 170.0433 0077165 32.5445 328.0477 14.59533212649404

Live tracking on map

Real-time ground track for satellite CZ-4 DEB.

In-orbit conjunctions

A list of the most updated potential collisions computed for object CZ-4 DEB.

Target Orbit TCA Probability of collision Miss distance Type
IRIDIUM 33 DEB LEO 2024-11-19 01:09:45 0.0001859778 101.0 (m) DEBRIS
FENGYUN 1C DEB SSO 2024-11-10 11:32:43 0.0001567252 884.0 (m) DEBRIS
THOR BURNER 2 R/B SSO 2024-07-24 06:13:11 0.0003539449 96.0 (m) ROCKET BODY

Associated space launch

The CBERS (China Brazil Earth Resources Satellite) or ZY 1 (Zi Yuan) satellites are designed for global coverage and include cameras to make optical observations and a data collecting system to gather data on the environment. They are unique systems due to the use of on-board sensors which combine features that are especially designed to resolve the broad range of space and time scales involved in the monitoring and preservation of the ecosystem. They are operated jointly by the China Centre for Resources Satellite Data and Application (CRESDA) and the Brazilian INPE (Instituto Nacional de Pesquisas Espaciais, National Institute of Space Research).

CZ-4 DEB was lifted into orbit during the mission ‘Long March 4B | Zi Yuan 1-1’, on board a Long March 4B space rocket.

The launch took place on Oct. 14, 1999, 3:15 a.m. from Launch Complex 7.

For more information about the launch, click the button.

Launch to space Long March 4B | Zi Yuan 1-1
Long March 4B | Zi Yuan 1-1

Agency: N/A

Status: Launch Successful

Launch date: Oct. 14, 1999, 3:15 a.m. UTC

Rocket: Long March 4B

Launch pad: Launch Complex 7

Location: Taiyuan Satellite Launch Center, People's Republic of China

...

Latest news about this satellite

There are no fresh news available about this satellite. Check back as we update our databases every day.


Newsletter sign-up

Weekly statistics, charts and insights to help you stay on top of the space industry.